Weather History for 94809 - August, 2013

Change the Weather History Date:

Monday, August 19, 2013

  Actual Average Record
Temperature  
Mean Temperature 51 °F -  
Max Temperature 55 °F - - ()
Min Temperature 47 °F - - ()
Degree Days  
Heating Degree Days 14    
Growing Degree Days 1 (Base 50)    
Moisture  
Dew Point 37 °F    
Average Humidity 52    
Maximum Humidity 82    
Minimum Humidity 37    
Precipitation  
Precipitation 0.00 in - - ()
Sea Level Pressure  
Sea Level Pressure 30.10 in    
Wind  
Wind Speed 13 mph ()    
Max Wind Speed 24 mph    
Max Gust Speed -    
T = Trace of Precipitation, MM = Missing Value Source: Averaged Metar Reports

Daily Weather History Graph

Daily Weather History Graph

Search for Another Location

Airport or City:

Trip Planner

Search our weather history database for the weather conditions in past years. The results will help you decide how hot, cold, wet, or windy it might be!

Date:

Astronomy

Aug. 19, 2013 Rise Set
Actual Time 6:55 AM ACST 5:50 PM ACST
Civil Twilight 6:29 AM ACST 6:16 PM ACST
Nautical Twilight 5:59 AM ACST 6:46 PM ACST
Astronomical Twilight 5:30 AM ACST 7:15 PM ACST
Moon 3:55 PM ACST (8/19) 4:59 AM ACST (8/19)
Length of Visible Light 11h 47m
Length of Day
10h 55m
Waxing Gibbous, 94% of the Moon is Illuminated
Aug 19
Waxing Gibbous
Aug 21
Full
Aug 28
Last Quarter
Sep 5
New
Sep 13
First Quarter

Hourly Weather History & Observations

Time (ACST) Temp. Dew Point Humidity Pressure Visibility Wind Dir Wind Speed Gust Speed Precip Events Conditions
12:00 AM 47 °F 43 °F 82% 29.99 in - WNW 11.5 mph - -   Unknown Precipitation
1:30 AM 48 °F 44 °F 81% 29.99 in - WSW 6.9 mph - -  
2:30 AM 47 °F 42 °F 78% 30.00 in - WSW 9.2 mph - -  
3:00 AM 48 °F 40 °F 65% 30.00 in - SW 24.2 mph - -   Unknown Precipitation
4:30 AM 50 °F 39 °F 57% 30.02 in - SW 20.7 mph - -  
5:30 AM 49 °F 31 °F 38% 30.03 in - SW 20.7 mph - -  
6:00 AM 49 °F 35 °F 46% 30.04 in - SW 16.1 mph - -  
8:30 AM 51 °F 35 °F 43% 30.12 in - SW 19.6 mph - -  
9:00 AM 51 °F 35 °F 43% 30.13 in - SW 17.3 mph - -  
10:30 AM 53 °F 37 °F 44% 30.15 in - SW 17.3 mph - -  
11:30 AM 53 °F 37 °F 42% 30.15 in - SW 13.8 mph - -  
1:30 PM 55 °F 36 °F 38% 30.13 in - WSW 17.3 mph - -  
2:30 PM 55 °F 36 °F 37% 30.13 in - WSW 15.0 mph - -  
3:00 PM 55 °F 37 °F 39% 30.13 in - SSW 13.8 mph - -  
4:30 PM 49 °F 36 °F 51% 30.15 in - West 19.6 mph - -  
5:30 PM 50 °F 35 °F 46% 30.16 in - SW 9.2 mph - -  
7:30 PM 49 °F 34 °F 45% 30.18 in - SW 11.5 mph - -  
8:30 PM 49 °F 38 °F 55% 30.19 in - SW 11.5 mph - -  
10:30 PM 49 °F 38 °F 57% 30.20 in - SW 11.5 mph - -  
11:30 PM 48 °F 38 °F 60% 30.20 in - SW 9.2 mph - -